Location: Zapote
(9.9191°N, 84.0597°W)
Time: 13:33:51
(UTC-06:00)

Hubble Space Telescope - Pass Details

Date: 03 March 2020
Orbit: 536 x 540 km, 28.5° (Epoch: 10 April)

Event Time Altitude Azimuth Distance (km) Brightness Sun altitude
Rises 18:51:57 0° 303° (WNW) 2,668 5.2 -16.8°
Reaches altitude 10° 18:54:14 10° 306° (NW) 1,779 4.1 -17.3°
Maximum altitude 18:58:18 62° 28° (NNE) 600 0.8 -18.3°
Enters shadow 18:59:16 46° 84° (E) 719 0.9 -18.6°
